Regional Weather Roundup
Issued by NWS

Home | Current Version | Previous Version | Text Only | Print | Product List | Glossary On
Versions: 1 2 3 4 5 6 7 8 9 10 11 12 13 14 15 16 17 18 19 20 21 22 23 24 25 26 27 28 29 30 31 32 33 34 35 36 37 38 39 40 41 42 43 44 45 46 47 48 49 50
000
ASMX46 KSGX 020511
RWRMX

MEXICAN WEATHER ROUNDUP
NATIONAL WEATHER SERVICE SAN DIEGO CA
1000 PM PDT SAT AUG 01 2015

BAJA CALIFORNIA

CITY           SKY/WX    TMP DP  RH WIND       PRES   REMARKS
ENSENADA NW      N/A     69  32  25 NW6       29.91R
LA PAZ         PTCLDY    84  72  65 S7        29.85R
MEXICALI       CLEAR     99  46  16 NW9       29.74R HX  95
S.J. DEL CABO  MOCLDY    82  75  78 NW5       29.85R
TIJUANA        CLOUDY    66  59  77 W6        29.96R

NORTHWESTERN MEXICO

CITY           SKY/WX    TMP DP  RH WIND       PRES   REMARKS
CHIHUAHUA      MOCLDY    79  52  38 N6        30.11R
CULIACAN         N/A    N/A N/A N/A MISG        N/A
HERMOSILLO     PTCLDY    95  66  38 SE5       29.83R HX  98
JUAREZ           N/A    N/A N/A N/A MISG        N/A
LOS MOCHIS       N/A    N/A N/A N/A MISG        N/A

NORTHEASTERN MEXICO

CITY           SKY/WX    TMP DP  RH WIND       PRES   REMARKS
MONTERREY      CLEAR     79  66  65 E7        29.97R
TORREON        PTCLDY    86  57  37 NE17      30.04S

WESTERN MEXICO

CITY           SKY/WX    TMP DP  RH WIND       PRES   REMARKS
AGUASCALIENTES MOCLDY    68  54  60 E14       30.23R
GUADALAJARA    PTCLDY    68  63  83 CALM      30.15R
MAZATLAN       CLOUDY    75  72  88 N9        29.84S
PTO. VALLARTA  PTCLDY    81  75  83 N5        29.86R
ZACATECAS      MOCLDY    64  48  55 SE10      30.29R

CENTRAL MEXICO

CITY           SKY/WX    TMP DP  RH WIND       PRES   REMARKS
LEON           PTCLDY    68  54  60 NE9       30.27R
MEXICO CITY    MOCLDY    64  50  59 N7        30.34R
PUEBLA         MOCLDY    59  54  82 N7        30.34R
QUERETARO      MOCLDY    61  54  77 SE8       30.33R
S. LUIS POTOSI CLOUDY    63  54  72 CALM      30.28R
TAMPICO          N/A    N/A N/A N/A MISG        N/A
TOLUCA         CLOUDY    54  52  94 N6        30.42R FOG
VERACRUZ       CLEAR     81  77  89 CALM      29.94S

SOUTHERN MEXICO

CITY           SKY/WX    TMP DP  RH WIND       PRES   REMARKS
ACAPULCO       PTCLDY    82  79  89 NW3       29.86R
B. DE HUATULCO MOCLDY    79  68  69 CALM      29.95R
OAXACA         PTCLDY    68  54  60 W2        30.22R
PTO. ESCONDIDO PTCLDY    81  73  78 NE6       29.97
TAPACHULA      PTCLDY    81  75  83 CALM      29.90R
TUX. GUTIERREZ PTCLDY    73  68  83 SE5       29.95
VILLAHERMOSA   CLEAR     82  75  78 NE8       29.93R

YUCATAN PENINSULA

CITY           SKY/WX    TMP DP  RH WIND       PRES   REMARKS
CANCUN         CLEAR     81  77  89 E6        29.99R
COZUMEL        CLEAR     73  73 100 CALM      29.98S
MERIDA         CLEAR     81  77  89 CALM      29.96R

$$



USA.gov is the U.S. government's official web portal to all federal, state and local government web resources and services.